This is the latest recevied weather packets stored in our database for station/object DM1RG-6. If no packets are shown the sender has not sent any weather packets the latest 10 day(s).
| Time | Temp. | Humidity | Pressure | Rain* | Wind** | Luminosity | Snow |
|---|---|---|---|---|---|---|---|
| 1777372203 | 12.78° C | 32% | 1024.9 hPa | 0 mm | - | - | - |
| 1777371843 | 12.78° C | 32% | 1024.9 hPa | 0 mm | - | - | - |
| 1777371484 | 12.22° C | 32% | 1025.1 hPa | 0 mm | - | - | - |
| 1777371123 | 12.78° C | 32% | 1025.1 hPa | 0 mm | - | - | - |
| 1777370764 | 12.22° C | 34% | 1025 hPa | 0 mm | - | - | - |
| 1777370404 | 12.78° C | 35% | 1025.2 hPa | 0 mm | - | - | - |
| 1777370043 | 12.22° C | 33% | 1025.1 hPa | 0 mm | - | - | - |
| 1777369684 | 12.22° C | 33% | 1025.3 hPa | 0 mm | - | - | - |
| 1777368964 | 12.22° C | 36% | 1025.2 hPa | 0 mm | - | - | - |
| 1777368604 | 12.22° C | 35% | 1025.2 hPa | 0 mm | - | - | - |
| 1777368244 | 12.22° C | 38% | 1025.4 hPa | 0 mm | - | - | - |
| 1777367164 | 11.67° C | 36% | 1025.3 hPa | 0 mm | - | - | - |
| 1777365724 | 10.56° C | 38% | 1025.3 hPa | 0 mm | - | - | - |
| 1777365363 | 11.11° C | 39% | 1025.2 hPa | 0 mm | - | - | - |
| 1777365004 | 10.56° C | 40% | 1025.2 hPa | 0 mm | - | - | - |
| 1777364643 | 10.56° C | 40% | 1025 hPa | 0 mm | - | - | - |
| 1777364283 | 10.56° C | 42% | 1025.3 hPa | 0 mm | - | - | - |
| 1777363924 | 10.56° C | 42% | 1025.1 hPa | 0 mm | - | - | - |
| 1777363564 | 10.56° C | 44% | 1025 hPa | 0 mm | - | - | - |
| 1777363204 | 10° C | 43% | 1025.2 hPa | 0 mm | - | - | - |
| 1777362844 | 10° C | 44% | 1025.1 hPa | 0 mm | - | - | - |
| 1777362484 | 10° C | 44% | 1025.2 hPa | 0 mm | - | - | - |
| 1777362124 | 10° C | 46% | 1025.1 hPa | 0 mm | - | - | - |
| 1777361764 | 9.44° C | 45% | 1025.1 hPa | 0 mm | - | - | - |
| 1777361403 | 9.44° C | 46% | 1025.2 hPa | 0 mm | - | - | - |
* Rain latest hour (hover to see other rain measurements)
** Current wind speed in m/s (hover to see current wind gust speed)